International Virtual Aviation Organisation

Eastern Europe and Northern Asia MCD

 

Карточка аэропорта UMKK

Внимание!
Информация на этой странице в стадии наполнения.
Если вы не увидели какой-то информации, или заметили неточность - пожалуйста сообщите нам!
Спасибо!
Команда RU-STAFF
Название аэропортаХраброво
Название аэропорта (англ.)Khrabrovo
Превышение43 ft. (13.1 m.)
Координаты54°53.4', 20°35.55'
Высота перехода1000m
Эшелон переходаQFE>=742mm:FL050; QFE<742:FL060
Коды ответчика6620-6637
Зона ОрВДКалининград РПИ (UMKK)
Данные METARUMKK 101100Z 32003G08MPS 270V020 9999 FEW030 BKN041 08/02 Q1016 R24/290095 NOSIG RMK QFE761/1014
Проноз погоды (TAF)UMKK 100759Z 1009/1109 26005G10MPS 9999 FEW010 BKN020 TEMPO 1009/1015 -SHRA BKN016CB BECMG 1015/1017 VRB01MPS 6000 BECMG 1102/1104 09005MPS
NOTAMshow/hide NOTAM
AWOS   TABLE

Информация о ВПП

ВПП Длина ВПП (м.) Покрытие Курс ВПП Частота ILS
063350Асфальтобетон60110.3
243350Асфальтобетон240109.5

Диспетчерские позиции

Позывной Наименование органа УВД Частота
UMKK_APPКалининград-Подход126.0
UMKK_TWRКалининград-Вышка127.2



Спутниковое изображение